Location: Unspecified
(0.0000°N, 0.0000°E)
Time: 05:19:41
(UTC+00:00)

Explorer 7 - Pass Details

Date: 03 October 2020
Orbit: 484 x 678 km, 50.3° (Epoch: 28 October)

Event Time Altitude Azimuth Distance (km) Brightness Sun altitude
Rises 08:00:31 0° 326° (NW) 2,998 10.3 32.8°
Reaches altitude 10° 08:02:55 10° 327° (NNW) 2,072 9.5 33.4°
Maximum altitude 08:07:42 78° 53° (NE) 660 8.0 34.6°
Drops below altitude 10° 08:12:17 10° 139° (SE) 1,983 10.4 35.7°
Sets 08:14:32 0° 141° (SE) 2,858 11.0 36.3°
